| time (UTC) | temp F | wind direction | speed knots | gust knots | rain 1hr in | rain 24hr in | rain mn in | humidity % | barometer mb |
| 20260507033212 | 47 | 134 | 0.0 | 0.9 | 0.00 | 0.32 | 0.32 | 82 | 1096.3 |
| 20260507032311 | 47 | 337 | 0.0 | 0.0 | 0.00 | 0.32 | 0.32 | 82 | 1096.4 |
| 20260507031312 | 47 | 337 | 0.0 | 0.9 | 0.00 | 0.32 | 0.32 | 82 | 1096.3 |
| 20260507030329 | 48 | 337 | 0.0 | 0.0 | 0.00 | 0.32 | 0.32 | 82 | 1096.3 |
| 20260507025314 | 47 | 337 | 0.0 | 0.0 | 0.00 | 0.32 | 0.32 | 83 | 1096.2 |
| 20260507024313 | 48 | 337 | 0.0 | 0.0 | 0.00 | 0.32 | 0.32 | 83 | 1096.2 |
| 20260507023313 | 48 | 337 | 0.0 | 0.0 | 0.00 | 0.32 | 0.32 | 84 | 1096.1 |
| 20260507022316 | 48 | 292 | 0.0 | 0.9 | 0.01 | 0.32 | 0.32 | 84 | 1096.0 |
| 20260507020414 | 49 | 334 | 2.6 | 3.5 | 0.01 | 0.32 | 0.32 | 84 | 1096.1 |
| 20260507015414 | 49 | 337 | 0.0 | 0.0 | 0.01 | 0.32 | 0.32 | 84 | 1096.3 |
| 20260507014513 | 50 | 337 | 0.0 | 0.0 | 0.01 | 0.32 | 0.32 | 84 | 1095.8 |
| 20260507013612 | 50 | 320 | 0.0 | 3.5 | 0.01 | 0.32 | 0.32 | 83 | 1096.0 |
| 20260507010712 | 52 | 319 | 0.0 | 1.7 | 0.00 | 0.31 | 0.31 | 82 | 1095.5 |
| 20260507004811 | 53 | 337 | 0.0 | 0.0 | 0.00 | 0.31 | 0.31 | 82 | 1095.2 |
| 20260507003813 | 53 | 335 | 1.7 | 2.6 | 0.01 | 0.31 | 0.31 | 82 | 1094.9 |
| 20260507002814 | 54 | 21 | 0.0 | 2.6 | 0.01 | 0.31 | 0.31 | 82 | 1095.1 |
| 20260507001814 | 55 | 306 | 0.9 | 2.6 | 0.01 | 0.31 | 0.31 | 81 | 1094.8 |
| 20260507001711 | 55 | 305 | 0.0 | 1.7 | 0.01 | 0.31 | 0.31 | 81 | 1094.9 |
| 20260507000714 | 56 | 331 | 1.7 | 3.5 | 0.01 | 0.31 | 0.31 | 79 | 1094.7 |
| 20260507000613 | 56 | 332 | 2.6 | 5.2 | 0.01 | 0.31 | 0.31 | 80 | 1094.8 |
| 20260506234614 | 58 | 319 | 1.7 | 4.3 | 0.00 | 0.30 | 0.30 | 79 | 1093.9 |
| 20260506233612 | 58 | 135 | 0.0 | 0.0 | 0.00 | 0.30 | 0.30 | 79 | 1093.5 |
| 20260506232611 | 58 | 135 | 0.0 | 1.7 | 0.00 | 0.30 | 0.30 | 79 | 1093.4 |
| 20260506230613 | 58 | 142 | 0.9 | 1.7 | 0.00 | 0.30 | 0.30 | 79 | 1093.3 |
| 20260506225616 | 58 | 157 | 2.6 | 4.3 | 0.00 | 0.30 | 0.30 | 79 | 1093.2 |
| 20260506224711 | 58 | 157 | 1.7 | 2.6 | 0.00 | 0.30 | 0.30 | 78 | 1093.0 |
| 20260506223715 | 58 | 156 | 1.7 | 3.5 | 0.00 | 0.30 | 0.30 | 79 | 1093.2 |
| 20260506222812 | 58 | 134 | 1.7 | 2.6 | 0.00 | 0.30 | 0.30 | 79 | 1093.2 |
| 20260506221812 | 58 | 138 | 2.6 | 3.5 | 0.01 | 0.30 | 0.30 | 79 | 1093.1 |
| 20260506220814 | 58 | 155 | 4.3 | 7.0 | 0.02 | 0.30 | 0.30 | 78 | 1093.2 |
| 20260506215813 | 58 | 152 | 3.5 | 5.2 | 0.02 | 0.30 | 0.30 | 79 | 1093.2 |
| 20260506214813 | 58 | 144 | 4.3 | 5.2 | 0.02 | 0.30 | 0.30 | 77 | 1093.2 |
| 20260506213812 | 58 | 141 | 1.7 | 2.6 | 0.02 | 0.30 | 0.30 | 77 | 1093.3 |
| 20260506212814 | 58 | 150 | 2.6 | 2.6 | 0.02 | 0.30 | 0.30 | 79 | 1093.2 |
| 20260506211912 | 58 | 157 | 2.6 | 2.6 | 0.02 | 0.28 | 0.28 | 79 | 1093.2 |
| 20260506210912 | 58 | 150 | 1.7 | 2.6 | 0.01 | 0.28 | 0.28 | 79 | 1093.3 |
| 20260506205913 | 58 | 156 | 1.7 | 2.6 | 0.02 | 0.28 | 0.28 | 79 | 1093.4 |
| 20260506204915 | 58 | 115 | 1.7 | 2.6 | 0.03 | 0.28 | 0.28 | 79 | 1093.4 |
| 20260506204012 | 58 | 147 | 2.6 | 3.5 | 0.04 | 0.28 | 0.28 | 78 | 1093.4 |
| 20260506203013 | 58 | 160 | 2.6 | 3.5 | 0.04 | 0.28 | 0.28 | 79 | 1093.4 |
| 20260506202111 | 58 | 160 | 3.5 | 5.2 | 0.05 | 0.27 | 0.27 | 78 | 1093.5 |
| 20260506201114 | 58 | 144 | 3.5 | 6.1 | 0.05 | 0.27 | 0.27 | 79 | 1093.8 |
| 20260506200212 | 58 | 134 | 3.5 | 5.2 | 0.06 | 0.26 | 0.26 | 78 | 1093.8 |
| 20260506195213 | 58 | 156 | 3.5 | 5.2 | 0.07 | 0.26 | 0.26 | 79 | 1093.9 |
| 20260506193212 | 58 | 179 | 3.5 | 4.3 | 0.06 | 0.24 | 0.24 | 78 | 1094.2 |
| 20260506193113 | 58 | 165 | 4.3 | 6.1 | 0.06 | 0.24 | 0.24 | 79 | 1094.3 |
| 20260506192113 | 58 | 140 | 2.6 | 4.3 | 0.05 | 0.22 | 0.22 | 79 | 1094.2 |
| 20260506191211 | 58 | 154 | 4.3 | 6.1 | 0.06 | 0.22 | 0.22 | 78 | 1094.3 |
| 20260506184212 | 59 | 167 | 5.2 | 8.7 | 0.07 | 0.18 | 0.18 | 80 | 1094.3 |
| 20260506183213 | 59 | 133 | 1.7 | 3.5 | 0.07 | 0.18 | 0.18 | 80 | 1094.4 |
| 20260506182212 | 59 | 157 | 4.3 | 5.2 | 0.07 | 0.17 | 0.17 | 80 | 1094.5 |
| 20260506181212 | 59 | 160 | 3.5 | 5.2 | 0.08 | 0.16 | 0.16 | 80 | 1094.8 |
| 20260506175212 | 59 | 134 | 2.6 | 7.0 | 0.08 | 0.11 | 0.11 | 80 | 1094.9 |
| 20260506174311 | 59 | 162 | 1.7 | 2.6 | 0.09 | 0.11 | 0.11 | 80 | 1094.9 |
| 20260506173316 | 59 | 156 | 4.3 | 6.1 | 0.10 | 0.11 | 0.11 | 81 | 1095.0 |
| 20260506172312 | 59 | 154 | 2.6 | 4.3 | 0.10 | 0.10 | 0.10 | 82 | 1095.3 |
| 20260506171312 | 59 | 156 | 3.5 | 4.3 | 0.08 | 0.08 | 0.08 | 83 | 1095.8 |
| 20260506170312 | 59 | 135 | 0.0 | 0.0 | 0.05 | 0.05 | 0.05 | 83 | 1096.0 |
| 20260506165313 | 60 | 202 | 0.0 | 0.0 | 0.04 | 0.04 | 0.03 | 83 | 1096.1 |
| 20260506164311 | 60 | 247 | 0.0 | 0.0 | 0.02 | 0.02 | 0.02 | 82 | 1096.1 |
| 20260506163313 | 61 | 247 | 0.0 | 0.9 | 0.01 | 0.01 | 0.00 | 82 | 1096.0 |
| 20260506162311 | 61 | 184 | 0.9 | 2.6 | 0.00 | 0.00 | 0.00 | 80 | 1096.0 |
| 20260506161313 | 62 | 198 | 2.6 | 4.3 | 0.00 | 0.00 | 0.00 | 80 | 1096.1 |
| 20260506160312 | 62 | 166 | 4.3 | 6.1 | 0.00 | 0.00 | 0.00 | 79 | 1096.1 |
| 20260506155315 | 63 | 156 | 4.3 | 7.8 | 0.00 | 0.00 | 0.00 | 78 | 1096.1 |
| 20260506154411 | 63 | 171 | 3.5 | 5.2 | 0.00 | 0.00 | 0.00 | 78 | 1096.3 |
| 20260506153411 | 63 | 157 | 3.5 | 5.2 | 0.00 | 0.00 | 0.00 | 76 | 1096.4 |
| 20260506152413 | 63 | 166 | 2.6 | 5.2 | 0.00 | 0.00 | 0.00 | 76 | 1096.6 |
| 20260506151413 | 63 | 169 | 3.5 | 5.2 | 0.00 | 0.00 | 0.00 | 76 | 1096.7 |
| 20260506150411 | 62 | 175 | 2.6 | 4.3 | 0.00 | 0.00 | 0.00 | 78 | 1096.9 |
| 20260506145415 | 62 | 175 | 1.7 | 3.5 | 0.00 | 0.00 | 0.00 | 79 | 1097.0 |
| 20260506144413 | 62 | 176 | 0.9 | 2.6 | 0.00 | 0.00 | 0.00 | 78 | 1096.8 |
| 20260506141612 | 63 | 174 | 4.3 | 6.1 | 0.00 | 0.00 | 0.00 | 77 | 1097.0 |
| 20260506140613 | 63 | 210 | 2.6 | 6.1 | 0.00 | 0.00 | 0.00 | 76 | 1096.6 |
| 20260506135712 | 64 | 157 | 4.3 | 6.1 | 0.00 | 0.00 | 0.00 | 76 | 1096.8 |
| 20260506134713 | 63 | 135 | 3.5 | 6.1 | 0.00 | 0.00 | 0.00 | 79 | 1096.5 |
| 20260506132712 | 61 | 112 | 0.0 | 1.7 | 0.00 | 0.00 | 0.00 | 82 | 1096.5 |
| 20260506131713 | 60 | 159 | 2.6 | 4.3 | 0.00 | 0.00 | 0.00 | 82 | 1096.3 |
| 20260506130713 | 59 | 157 | 1.7 | 3.5 | 0.00 | 0.00 | 0.00 | 84 | 1096.6 |
| 20260506124715 | 56 | 247 | 0.0 | 0.0 | 0.00 | 0.00 | 0.00 | 84 | 1097.0 |
| 20260506122811 | 54 | 247 | 0.0 | 0.0 | 0.00 | 0.00 | 0.00 | 82 | 1097.5 |
| 20260506115813 | 51 | 247 | 0.0 | 0.0 | 0.00 | 0.00 | 0.00 | 81 | 1097.4 |
| 20260506114815 | 50 | 247 | 0.0 | 0.0 | 0.00 | 0.00 | 0.00 | 82 | 1097.2 |
| 20260506113911 | 50 | 247 | 0.0 | 0.0 | 0.00 | 0.00 | 0.00 | 81 | 1097.2 |
| 20260506111911 | 49 | 247 | 0.0 | 0.0 | 0.00 | 0.00 | 0.00 | 81 | 1097.2 |
| 20260506110912 | 49 | 247 | 0.0 | 0.0 | 0.00 | 0.00 | 0.00 | 80 | 1097.1 |
| 20260506110011 | 48 | 247 | 0.0 | 0.0 | 0.00 | 0.00 | 0.00 | 80 | 1097.2 |
| 20260506104111 | 47 | 247 | 0.0 | 0.0 | 0.00 | 0.00 | 0.00 | 81 | 1097.3 |
| 20260506103112 | 47 | 247 | 0.0 | 0.0 | 0.00 | 0.00 | 0.00 | 81 | 1097.2 |
| 20260506102111 | 46 | 247 | 0.0 | 0.0 | 0.00 | 0.00 | 0.00 | 82 | 1097.3 |
| 20260506101113 | 46 | 247 | 0.0 | 0.0 | 0.00 | 0.00 | 0.00 | 81 | 1097.0 |
| 20260506100210 | 46 | 247 | 0.0 | 0.0 | 0.00 | 0.00 | 0.00 | 82 | 1096.8 |
| 20260506100114 | 46 | 247 | 0.0 | 0.0 | 0.00 | 0.00 | 0.00 | 81 | 1096.8 |
| 20260506095213 | 47 | 247 | 0.0 | 0.0 | 0.00 | 0.00 | 0.00 | 82 | 1096.9 |
| 20260506093213 | 47 | 247 | 0.0 | 0.0 | 0.00 | 0.00 | 0.00 | 81 | 1096.7 |
| 20260506092213 | 47 | 247 | 0.0 | 0.0 | 0.00 | 0.00 | 0.00 | 83 | 1096.9 |
| 20260506091214 | 47 | 247 | 0.0 | 0.0 | 0.00 | 0.00 | 0.00 | 83 | 1097.0 |
| 20260506090213 | 48 | 247 | 0.0 | 0.0 | 0.00 | 0.00 | 0.00 | 83 | 1096.8 |
| 20260506085213 | 48 | 247 | 0.0 | 0.0 | 0.00 | 0.00 | 0.00 | 83 | 1097.0 |
| 20260506085127 | 48 | 247 | 0.0 | 0.0 | 0.00 | 0.00 | 0.00 | 82 | 1097.0 |
| 20260506084111 | 48 | 247 | 0.0 | 0.0 | 0.00 | 0.00 | 0.00 | 82 | 1096.9 |
| 20260506083113 | 48 | 247 | 0.0 | 0.0 | 0.00 | 0.00 | 0.00 | 83 | 1096.9 |
| 20260506082112 | 49 | 247 | 0.0 | 0.0 | 0.00 | 0.00 | 0.00 | 83 | 1097.1 |
| 20260506070113 | 51 | 247 | 0.0 | 0.0 | 0.00 | 0.00 | 0.00 | 84 | 1097.3 |
| 20260506061011 | 53 | 247 | 0.0 | 0.0 | 0.00 | 0.00 | 0.00 | 82 | 1097.2 |
| 20260506045112 | 59 | 181 | 1.7 | 3.5 | 0.00 | 0.00 | 0.00 | 71 | 1097.5 |
| 20260506044113 | 60 | 157 | 0.9 | 3.5 | 0.00 | 0.00 | 0.00 | 71 | 1097.7 |
| 20260506043210 | 60 | 157 | 0.0 | 0.0 | 0.00 | 0.00 | 0.00 | 71 | 1097.6 |
| 20260506042212 | 60 | 112 | 0.9 | 1.7 | 0.00 | 0.00 | 0.00 | 70 | 1097.4 |
| 20260506041210 | 60 | 112 | 0.0 | 0.0 | 0.00 | 0.00 | 0.00 | 69 | 1097.6 |
| 20260506040211 | 61 | 126 | 2.6 | 5.2 | 0.00 | 0.00 | 0.00 | 69 | 1097.4 |
| 20260506035210 | 61 | 143 | 1.7 | 3.5 | 0.00 | 0.00 | 0.00 | 69 | 1097.6 |
| 20260506034212 | 62 | 157 | 0.0 | 0.9 | 0.00 | 0.00 | 0.00 | 68 | 1097.6 |
| 20260506034110 | 62 | 157 | 0.0 | 0.9 | 0.00 | 0.00 | 0.00 | 68 | 1097.6 |